Weather Roundup
Issued by NWS

Home | Current Version | Previous Version | Text Only | Print | Product List | Glossary On
Versions: 1 2 3 4 5 6 7 8 9 10 11 12 13 14 15 16 17 18 19 20 21 22 23 24 25 26 27 28 29 30 31 32 33 34 35 36 37 38 39 40 41 42 43 44 45 46 47 48 49 50
000
NZUS93 KARX 201610
HRRWXR

CURRENT HOURLY OBSERVATIONS ACROSS
MUCH OF THE UPPER MISSISSIPPI VALLEY
NATIONAL WEATHER SERVICE LA CROSSE WI
1100 AM CDT SAT SEP 20 2014


...SOUTHEAST MINNESOTA...


CITY           SKY/WX    TMP DP  RH WIND       PRES   REMARKS
ROCHESTER      CLOUDY    69  64  84 W10       29.84R
ROCHESTER/MAYO FAIR      67  62  83 W10G20    29.82R
WINONA         CLOUDY    70  63  78 W5        29.79R
AUSTIN         PTSUNNY   66  63  88 W10       29.84F
ALBERT LEA     PTSUNNY   70  63  78 W8        29.83F
DODGE CENTER   PTSUNNY   70  63  78 W13       29.83R
PRESTON        CLOUDY    65  66 100 W14G20    29.84R
OWATONNA       MOSUNNY   70  57  64 W10       29.83S
FARIBAULT      MOSUNNY   72  55  56 W10       29.83S
$$

...ELSEWHERE IN MINNESOTA...


CITY           SKY/WX    TMP DP  RH WIND       PRES   REMARKS
MINNEAPOLIS    MOSUNNY   70  58  65 W13       29.81S
INTNL FALLS    CLOUDY    53  51  93 W6        29.74R FOG
DULUTH         CLOUDY    59  52  77 NW15      29.73R
RED WING       MOSUNNY   72  59  64 W12G17    29.78S
REDWOOD FALLS  SUNNY     70  58  65 NW10      29.87R
MANKATO        SUNNY     70  55  60 NW15      29.83F
WORTHINGTON    SUNNY     72  59  64 W8        29.91S
FAIRMONT       SUNNY     72  57  60 W14       29.86F
$$

...SOUTHWEST WISCONSIN...


CITY           SKY/WX    TMP DP  RH WIND       PRES   REMARKS
LA CROSSE      CLOUDY    70  63  78 W7        29.78R
PRAIRIE DU CHI PTSUNNY   71  62  71 W9        29.80R
BOSCOBEL       PTSUNNY   73  64  73 W9        29.80S
LONE ROCK      PTSUNNY   76  63  64 W10G21    29.77F
PLATTEVILLE    PTSUNNY   73  65  75 W12       29.83F
FORT MC COY    CLOUDY    68  62  79 W7        29.77R
CAMP DOUGLAS   PTSUNNY   68  68 100 W10G17    29.75S
VIROQUA        PTSUNNY   66  66  99 W16G24    29.81R
WIS DELLS      PTSUNNY   73  62  69 W9        29.75F
$$

...ELSEWHERE IN WISCONSIN...


CITY           SKY/WX    TMP DP  RH WIND       PRES   REMARKS
MILWAUKEE      PTSUNNY   72  61  68 SW14      29.81F
MADISON        PTSUNNY   72  62  71 SW9G17    29.78F
GREEN BAY      CLOUDY    71  63  75 SW14G21   29.70F
EAU CLAIRE     CLOUDY    69  59  70 W13       29.77R
BLACK RVR FLS  FAIR      70  62  77 W12       29.76R
MEDFORD        PTSUNNY   67  61  79 W15       29.73S
WAUSAU         PTSUNNY   71  62  73 W18       29.70S
WIS RAPIDS     CLOUDY    70  63  78 W8G18     29.75F
MARSHFIELD     CLOUDY    69  63  81 W15       29.75R
RICE LAKE      PTSUNNY   67  56  68 NW9G18    29.77R
$$

...NORTHEAST IOWA...


CITY           SKY/WX    TMP DP  RH WIND       PRES   REMARKS
WATERLOO       LGT RAIN  66  62  87 S6        29.84F
DUBUQUE        PTSUNNY   73  64  73 SW17      29.86R
DECORAH        CLOUDY    64  63  94 VRB7G15   29.82F
MASON CITY     CLOUDY    68  65  90 W13       29.87R
CHARLES CITY   CLOUDY    64  61  88 SW8       29.84S
OELWEIN        LGT RAIN  66  63  88 NW9G21    29.84F
$$

...ELSEWHERE IN IOWA...


CITY           SKY/WX    TMP DP  RH WIND       PRES   REMARKS
DES MOINES     CLOUDY    75  67  76 W12       29.89F
IOWA CITY      CLOUDY    74  69  85 W8        29.88S
FORT DODGE     CLOUDY    72  66  83 W10       29.88S
MARSHALLTOWN   LGT RAIN  72  66  81 W12       29.88R
CEDAR RAPIDS   CLOUDY    71  67  87 SW9       29.87R
$$

...NORTHERN ILLINOIS...


CITY           SKY/WX    TMP DP  RH WIND       PRES   REMARKS
CHICAGO-OHARE  PTSUNNY   72  62  71 SW13      29.85F
DUPAGE         MOSUNNY   74  63  68 SW10      29.86S
CHICAGO-MIDWAY PTSUNNY   74  64  71 SW18G26   29.86F
MOLINE         CLOUDY    71  64  78 SW13      29.87R
ROCKFORD       PTSUNNY   73  62  68 SW12      29.86F
STERLING       CLOUDY    73  64  73 W10G16    29.87S
PEORIA         CLOUDY    72  64  76 S16       29.90F
$$

NOTE: "FAIR" INDICATES FEW OR NO CLOUDS BELOW 12,000 FEET WITH NO
SIGNIFICANT WEATHER AND/OR OBSTRUCTIONS TO VISIBILITY. WIND
SPEEDS ARE IN MILES-PER-HOUR.



USA.gov is the U.S. government's official web portal to all federal, state and local government web resources and services.